Location: Marcé
(47.5801°N, 0.3280°W)
Time: 21:39:17
(UTC+01:00)

Altair - Pass Details

Date: 15 December 2021
Orbit: 1501 x 1683 km, 47.2° (Epoch: 20 January)

Event Time Altitude Azimuth Distance (km) Brightness Sun altitude
Rises 11:41:41 0° 193° (SSW) 4,883 11.2 17.2°
Reaches altitude 10° 11:45:38 10° 180° (S) 3,876 11.4 17.4°
Maximum altitude 11:52:59 24° 131° (SE) 2,858 10.1 17.7°
Drops below altitude 10° 12:00:09 10° 83° (E) 3,781 9.7 18.0°
Sets 12:03:54 0° 70° (ENE) 4,739 10.0 18.1°
